Tracking 19903 objects as of 16-Oct-2019
HD Live streaming from Space Station
objects crossing your sky now

ARIANE 2 DEB

Track ARIANE 2 DEB now!


NORAD ID: 28566
Int'l Code: 1989-006AH
Perigee: 628.5 km
Apogee: 35,408.6 km
Inclination: 7.4 °
Period: 631.8 minutes
Semi major axis: 24389 km
RCS: 0.1259 m2 (medium)
Launch date: January 27, 1989
Source: France (FR)
Launch site: FRENCH GUIANA (FRGUI)

Note: This is SATELLITE DEBRIS
aabbcc
Your satellite tracking list
Your tracking list is empty




NASA's NSSDC Master Catalog

Two Line Element Set (TLE):
1 28566U 89006AH  19288.81606367 +.00001277 +00000-0 +21739-1 0  9995
2 28566 007.4300 021.0001 7130139 235.3544 036.0899 02.27927971056863
Source of the keplerian elements: AFSPC